Weather History for Bolton Field, OH

Change the Weather History Date:

Wednesday, November 27, 2013

  Actual Average Record
Temperature  
Mean Temperature 26 °F -  
Max Temperature 31 °F 46 °F 71 °F (2011)
Min Temperature 21 °F 32 °F 17 °F (2008)
Degree Days  
Heating Degree Days 39    
Moisture  
Dew Point 20 °F    
Average Humidity 78    
Maximum Humidity 92    
Minimum Humidity 51    
Precipitation  
Precipitation 0.00 in - - ()
Sea Level Pressure  
Sea Level Pressure 30.01 in    
Wind  
Wind Speed 12 mph (WNW)    
Max Wind Speed 21 mph    
Max Gust Speed 28 mph    
Visibility 9 miles    
Events Snow    
Averages and records for this station are not official NWS values.
T = Trace of Precipitation, MM = Missing Value Source: NWS Daily Summary

Daily Weather History Graph

Daily Weather History Graph

Search for Another Location

Airport:

Trip Planner

Search our weather history database for the weather conditions in past years. The results will help you decide how hot, cold, wet, or windy it might be!

Date:

Astronomy

Nov. 27, 2013 Rise Set
Actual Time 7:31 AM EST 5:09 PM EST
Civil Twilight 7:01 AM EST 5:39 PM EST
Nautical Twilight 6:27 AM EST 6:12 PM EST
Astronomical Twilight 5:55 AM EST 6:44 PM EST
Moon 1:32 AM EST (11/27) 1:45 PM EST (11/27)
Length of Visible Light 10h 37m
Length of Day
9h 38m
Waning Crescent, 32% of the Moon is Illuminated
Nov 27
Waning Crescent
Dec 2
New
Dec 9
First Quarter
Dec 17
Full
Dec 25
Last Quarter

Hourly Weather History & Observations

Time (EST) Temp. Windchill Dew Point Humidity Pressure Visibility Wind Dir Wind Speed Gust Speed Precip Events Conditions
12:15 AM 29.3 °F - 27.3 °F 92% 29.88 in 7.0 mi North - - N/A   Overcast
12:35 AM 29.3 °F - 27.1 °F 92% 29.86 in 7.0 mi North - - N/A   Overcast
12:55 AM 29.5 °F - 27.1 °F 91% 29.87 in 7.0 mi North - - N/A   Overcast
1:15 AM 30.2 °F - 27.5 °F 90% 29.87 in 7.0 mi North - - N/A   Overcast
1:35 AM 31.1 °F 21.9 °F 28.2 °F 89% 29.86 in 7.0 mi NW 11.5 mph - N/A   Overcast
1:55 AM 31.1 °F 22.4 °F 28.4 °F 90% 29.87 in 7.0 mi NW 10.4 mph - N/A   Overcast
2:15 AM 31.1 °F 20.9 °F 28.4 °F 90% 29.87 in 7.0 mi NW 13.8 mph - N/A   Overcast
2:35 AM 31.5 °F 22.9 °F 28.4 °F 88% 29.87 in 10.0 mi NW 10.4 mph - N/A   Overcast
2:55 AM 31.1 °F 21.4 °F 28.0 °F 88% 29.88 in 10.0 mi NW 12.7 mph 20.7 mph N/A   Overcast
3:15 AM 30.2 °F 19.3 °F 26.8 °F 87% 29.88 in 10.0 mi NNW 15.0 mph 21.9 mph N/A   Overcast
3:35 AM 29.7 °F - 25.7 °F 85% 29.88 in 10.0 mi North - - N/A   Overcast
3:55 AM 29.3 °F 18.6 °F 23.2 °F 78% 29.88 in 10.0 mi NNW 13.8 mph 26.5 mph N/A   Overcast
4:15 AM 28.8 °F 20.9 °F 23.4 °F 80% 29.87 in 10.0 mi NW 8.1 mph 16.1 mph N/A   Overcast
4:35 AM 28.4 °F 19.7 °F 21.6 °F 76% 29.88 in 10.0 mi NW 9.2 mph - N/A   Overcast
4:55 AM 28.2 °F 18.9 °F 20.5 °F 73% 29.89 in 10.0 mi NW 10.4 mph 17.3 mph N/A   Overcast
5:15 AM 28.0 °F - 21.2 °F 76% 29.89 in 10.0 mi North - - N/A   Overcast
5:35 AM 27.5 °F 16.8 °F 19.9 °F 73% 29.90 in 10.0 mi NW 12.7 mph - N/A   Overcast
5:55 AM 26.2 °F 15.8 °F 18.7 °F 73% 29.91 in 10.0 mi WNW 11.5 mph - N/A   Overcast
6:15 AM 24.6 °F 12.7 °F 18.3 °F 77% 29.92 in 10.0 mi NW 13.8 mph 21.9 mph N/A   Scattered Clouds
7:20 AM 23.0 °F 13.9 °F 17.6 °F 80% 29.94 in 10.0 mi WNW 8.1 mph - N/A   Scattered Clouds
7:50 AM 24.8 °F 14.6 °F 19.4 °F 80% 29.95 in 10.0 mi WNW 10.4 mph - N/A   Overcast
8:50 AM 24.8 °F 14.0 °F 21.2 °F 86% 29.96 in 7.0 mi NW 11.5 mph 20.7 mph N/A Snow Light Snow
9:30 AM 24.8 °F 11.9 °F 21.2 °F 86% 29.96 in 3.0 mi NW 16.1 mph 23.0 mph N/A Snow Light Snow
9:50 AM 26.6 °F 14.7 °F 21.2 °F 80% 29.96 in 3.0 mi NW 15.0 mph 25.3 mph N/A Snow Light Snow
10:10 AM 26.6 °F 13.4 °F 19.4 °F 74% 29.97 in 5.0 mi NNW 18.4 mph 27.6 mph N/A Snow Light Snow
10:50 AM 24.8 °F 11.5 °F 17.6 °F 74% 29.99 in 10.0 mi NW 17.3 mph 25.3 mph N/A   Overcast
11:50 AM 26.6 °F 13.8 °F 14.0 °F 59% 29.97 in 10.0 mi NW 17.3 mph 25.3 mph N/A   Overcast
12:50 PM 26.6 °F 13.8 °F 12.2 °F 55% 29.96 in 10.0 mi NW 17.3 mph 23.0 mph N/A   Scattered Clouds
1:55 PM 28.4 °F 15.1 °F 12.2 °F 51% 29.97 in 10.0 mi NW 20.7 mph 25.3 mph N/A   Scattered Clouds
2:55 PM 26.6 °F 13.8 °F 10.4 °F 51% 29.99 in 10.0 mi NW 17.3 mph 21.9 mph N/A   Scattered Clouds
3:50 PM 28.4 °F 16.6 °F 12.2 °F 51% 30.02 in 10.0 mi WNW 16.1 mph 25.3 mph N/A   Overcast
4:50 PM 26.6 °F 16.8 °F 12.2 °F 55% 30.05 in - WNW 10.4 mph 17.3 mph N/A   Overcast
5:50 PM 26.6 °F 18.2 °F 17.6 °F 69% 30.08 in 10.0 mi WNW 8.1 mph - N/A   Overcast
6:35 PM 26.4 °F 16.6 °F 16.9 °F 67% 30.11 in 10.0 mi WNW 10.4 mph - N/A   Overcast
6:50 PM 26.6 °F 16.8 °F 15.8 °F 64% 30.12 in 10.0 mi WNW 10.4 mph 19.6 mph N/A   Overcast
6:55 PM 25.9 °F 16.6 °F 16.7 °F 68% 30.12 in 10.0 mi WNW 9.2 mph - N/A   Overcast
7:15 PM 25.2 °F - 17.4 °F 72% 30.13 in 10.0 mi North - - N/A   Overcast
7:35 PM 24.6 °F 14.4 °F 18.3 °F 77% 30.14 in 10.0 mi West 10.4 mph 17.3 mph N/A   Mostly Cloudy
7:55 PM 23.9 °F - 17.6 °F 77% 30.14 in 10.0 mi North - - N/A   Scattered Clouds
8:15 PM 23.4 °F - 17.6 °F 79% 30.15 in 10.0 mi North - - N/A   Scattered Clouds
8:35 PM 23.2 °F - 17.8 °F 80% 30.16 in 10.0 mi North - - N/A   Scattered Clouds
8:55 PM 23.4 °F 14.3 °F 18.1 °F 80% 30.16 in 10.0 mi West 8.1 mph - N/A   Scattered Clouds
9:15 PM 23.4 °F 14.3 °F 18.5 °F 82% 30.17 in 10.0 mi West 8.1 mph - N/A   Scattered Clouds
9:35 PM 23.5 °F 14.5 °F 19.0 °F 83% 30.17 in 10.0 mi West 8.1 mph - N/A   Overcast
9:55 PM 23.9 °F 15.0 °F 19.4 °F 83% 30.18 in 10.0 mi West 8.1 mph - N/A   Overcast
10:15 PM 23.2 °F 16.0 °F 18.7 °F 83% 30.19 in 10.0 mi West 5.8 mph - N/A   Scattered Clouds
10:35 PM 22.5 °F 16.3 °F 18.3 °F 84% 30.19 in 10.0 mi West 4.6 mph - N/A   Clear
10:55 PM 22.1 °F 14.7 °F 18.1 °F 85% 30.20 in 10.0 mi WSW 5.8 mph - N/A   Clear
11:15 PM 21.9 °F 15.7 °F 18.7 °F 87% 30.21 in 10.0 mi WSW 4.6 mph - N/A   Mostly Cloudy
11:35 PM 23.4 °F 16.2 °F 19.4 °F 85% 30.22 in 10.0 mi WSW 5.8 mph - N/A   Overcast
11:55 PM 23.0 °F - 19.4 °F 86% 30.23 in 10.0 mi North - - N/A   Overcast